Location: Ay?beleni
(36.6500°N, 30.3000°E)
Time: 01:33:17
(UTC+00:00)

Cosmos 2082 - Pass Details

Date: 16 October 2021
Orbit: 835 x 853 km, 71.0° (Epoch: 04 December)

Event Time Altitude Azimuth Distance (km) Brightness Sun altitude
Rises 16:28:31 0° 339° (NNW) 3,390 7.1 -14.3°
Reaches altitude 10° 16:30:58 10° 342° (NNW) 2,451 6.3 -14.8°
Maximum altitude 16:36:36 76° 68° (ENE) 863 3.6 -15.9°
Drops below altitude 10° 16:42:11 10° 154° (SSE) 2,440 5.8 -17.0°
Sets 16:44:37 0° 156° (SSE) 3,372 6.6 -17.5°
